ATLAS 5 CENTAUR DEB, 52044

Orbit data source: Space-Track

ATLAS 5 CENTAUR DEB, 52044 is space debris in HEO originally from a launch on Wed, 17 Oct 2018 UTC launched from the Air Force Eastern Test Range (AFETR). Debris objects in space refer to the collection of defunct objects orbiting the Earth. Examples of debris include non-operational satellites, rocket bodies, and fragments generated from explosions, collisions, or faulty payload assembly.

Loading next visibility...
Identifier
52044, 2018-079GN
Orbit
HEO
Country
Flag of USUS
Related business
Flag of USUnited Launch Alliance/Lockheed Martin (US)
Manufacturer
ULA Decatur
Mission
Spacecraft
Bus & Motor
Unknown
Mass
Unknown
Launch date (UTC)
2018-10-17 (7 years ago)
Launch vehicle
Unknown
Launch site
Air Force Eastern Test Range (AFETR)
Object type
Payload
Rocket body
Debris
Shape & HBR
Unknown shape, 1.1 m
Radar Cross Section
RCS unknown

Expand to show TLE details & history
Last TLE update: 5 days ago

TLE from 5 days ago
0 ATLAS 5 CENTAUR DEB
1 52044U 18079GN  25292.85482488 -.00000090  00000-0  00000-0 0  9997
2 52044  12.6423  61.2897 4282678 275.3852  38.7600  1.90879391 29289
Epoch: 2025-10-19T20:30Z
TLE epoch observation values (Epoch: 2025-10-19T20:30:56.869Z)
Latitude
-0°
Longitude
84.95802°
Altitude
15,147.387 km
Speed
4.745 km/s
True Right ascension
04h 05m 02s
True Declination
0° 00' 00"
Sunlit
Object was in daylight at epoch
Visualization orbit readout
Latitude
Unknown
Longitude
Unknown
Altitude
Unknown
Speed
Unknown
Apparent Right ascension
Unknown
Apparent Declination
Unknown
Sunlit
N/A
Visualization observer readout
Local Sidereal Time
20:47:03
Azimuth
Unknown
Elevation
Unknown
Doppler factor
Unknown
Orbital elements
Apogee altitude
32,832.538 km
Perigee altitude
9,317.803 km
Semi-major axis
27,453.307 km
Eccentricity
0.42827
Inclination
12.6423°
RAAN
61.2897°
Arg. of periapsis
275.3852°
True anomaly
84.7782°
Mean anomaly
38.76°
Eccentric anomaly
60.01333°
Mean motion
0.47715 °/min
Orbital period
754.49 mins
BSTAR
0
Loading maneuver chart data...
Computing Atmospheric mass density...

Documentation

Showing up to 5 results
|